This is the latest recevied weather packets stored in our database for station/object KM4KMS. If no packets are shown the sender has not sent any weather packets the latest 10 day(s).
| Time | Temp. | Humidity | Pressure | Rain* | Wind** | Luminosity | Snow |
|---|---|---|---|---|---|---|---|
| 1777387508 | 17.22° C | 99% | 1013.9 hPa | 0 mm | - | 101 W/m² | - |
| 1777387203 | 17.22° C | 99% | 1014.1 hPa | 0 mm | - | 69 W/m² | - |
| 1777386898 | 17.22° C | 99% | 1014 hPa | 0 mm | - | 61 W/m² | - |
| 1777386595 | 17.22° C | 99% | 1013.9 hPa | 0 mm | - | 90 W/m² | - |
| 1777386292 | 17.22° C | 99% | 1014.1 hPa | 0 mm | - | 40 W/m² | - |
| 1777385990 | 17.22° C | 99% | 1014 hPa | 0 mm | - | 75 W/m² | - |
| 1777385686 | 17.22° C | 99% | 1013.8 hPa | 0 mm | - | 47 W/m² | - |
| 1777385383 | 17.22° C | 99% | 1013.7 hPa | 0 mm | - | 49 W/m² | - |
| 1777385080 | 17.22° C | 99% | 1013.9 hPa | 0 mm | - | 68 W/m² | - |
| 1777384776 | 17.22° C | 99% | 1013.9 hPa | 0 mm | - | 79 W/m² | - |
| 1777384472 | 17.22° C | 99% | 1013.8 hPa | 0 mm | - | 66 W/m² | - |
| 1777384167 | 16.67° C | 99% | 1013.8 hPa | 0 mm | - | 86 W/m² | - |
| 1777383864 | 16.67° C | 99% | 1013.6 hPa | 0 mm | - | 76 W/m² | - |
| 1777383560 | 16.67° C | 99% | 1013.5 hPa | 0 mm | - | 83 W/m² | - |
| 1777383257 | 16.67° C | 99% | 1013.6 hPa | 0 mm | - | 69 W/m² | - |
| 1777382953 | 16.67° C | 99% | 1013.5 hPa | 0 mm | - | 89 W/m² | - |
| 1777382648 | 16.67° C | 99% | 1013.3 hPa | 0 mm | - | 98 W/m² | - |
| 1777382344 | 16.67° C | 99% | 1013.3 hPa | 0 mm | - | 72 W/m² | - |
| 1777382041 | 16.67° C | 99% | 1013.3 hPa | 0 mm | - | 67 W/m² | - |
| 1777381736 | 16.67° C | 99% | 1013.1 hPa | 0 mm | - | 50 W/m² | - |
| 1777381431 | 16.67° C | 99% | 1013.2 hPa | 0 mm | - | 71 W/m² | - |
| 1777381128 | 16.67° C | 99% | 1013.1 hPa | 0 mm | - | 56 W/m² | - |
| 1777380825 | 16.67° C | 99% | 1013.1 hPa | 0 mm | - | 36 W/m² | - |
| 1777380522 | 16.11° C | 99% | 1013.3 hPa | 0 mm | - | 25 W/m² | - |
| 1777380218 | 16.11° C | 99% | 1013.1 hPa | 0 mm | - | 29 W/m² | - |
* Rain latest hour (hover to see other rain measurements)
** Current wind speed in m/s (hover to see current wind gust speed)